EW2964 Weather Reports


Display with metric or nautical units.
time (UTC)temp
F
wind
direction
speed
MPH
gust
MPH
rain 1hr
in
rain 24hr
in
rain mn
in
humidity
%
barometer
mb
20260510231008 59 219 1.0 4.0 0.00 0.00 0.00 83 1016.8
20260510230504 59 115 1.0 4.0 0.00 0.00 0.00 83 1016.8
20260510230017 59 207 1.0 8.0 0.00 0.00 0.00 84 1016.8
20260510225507 59 198 2.0 8.0 0.00 0.00 0.00 84 1016.9
20260510225009 59 202 2.0 11.0 0.00 0.00 0.00 84 1016.9
20260510224521 59 225 6.0 11.0 0.00 0.00 0.00 83 1016.9
20260510224005 59 200 1.0 8.0 0.00 0.00 0.00 84 1016.8
20260510223509 59 177 2.0 7.0 0.00 0.00 0.00 84 1016.7
20260510223025 59 111 2.0 9.0 0.00 0.00 0.00 83 1016.8
20260510222510 59 160 2.0 11.0 0.00 0.00 0.00 83 1016.8
20260510222009 59 153 3.0 11.0 0.00 0.00 0.00 82 1016.9
20260510221526 59 211 5.0 13.0 0.00 0.00 0.00 82 1016.7
20260510221007 59 219 5.0 15.0 0.00 0.00 0.00 81 1016.6
20260510220510 60 221 6.0 16.0 0.00 0.00 0.00 81 1016.5
20260510220031 60 250 5.0 16.0 0.00 0.00 0.00 79 1016.4
20260510215505 62 189 8.0 15.0 0.00 0.00 0.00 80 1016.4
20260510215007 63 191 5.0 14.0 0.00 0.00 0.00 77 1016.2
20260510214517 64 92 2.0 12.0 0.00 0.00 0.00 74 1016.0
20260510214006 66 198 5.0 9.0 0.00 0.00 0.00 70 1016.0
20260510213509 66 203 2.0 8.0 0.00 0.00 0.00 70 1015.9
20260510213023 66 273 0.0 5.0 0.00 0.00 0.00 71 1015.8
20260510212509 65 297 3.0 8.0 0.00 0.00 0.00 71 1015.6
20260510212011 65 360 2.0 10.0 0.00 0.00 0.00 72 1015.5
20260510211526 66 323 3.0 10.0 0.00 0.00 0.00 71 1015.5
20260510211011 66 324 3.0 10.0 0.00 0.00 0.00 70 1015.6
20260510210510 67 327 4.0 10.0 0.00 0.00 0.00 68 1015.4
20260510210027 67 27 3.0 11.0 0.00 0.00 0.00 68 1015.4
20260510205508 67 345 5.0 12.0 0.00 0.00 0.00 68 1015.4
20260510205010 67 302 5.0 12.0 0.00 0.00 0.00 68 1015.4
20260510204536 67 296 5.0 11.0 0.00 0.00 0.00 72 1015.4
20260510204010 67 279 3.0 11.0 0.00 0.00 0.00 69 1015.4
20260510203505 66 253 4.0 14.0 0.00 0.00 0.00 69 1015.2
20260510203022 66 332 8.0 15.0 0.00 0.00 0.00 70 1015.4
20260510202515 66 341 8.0 15.0 0.00 0.00 0.00 69 1015.4
20260510202012 67 308 8.0 18.0 0.00 0.00 0.00 69 1015.4
20260510201526 68 341 8.0 23.0 0.00 0.00 0.00 67 1015.4
20260510201009 68 340 6.0 23.0 0.00 0.00 0.00 64 1015.3
20260510200509 69 320 10.0 17.0 0.00 0.00 0.00 59 1015.2
20260510200028 69 324 8.0 13.0 0.00 0.00 0.00 60 1015.3
20260510195507 69 298 6.0 13.0 0.00 0.00 0.00 59 1015.3
20260510195010 69 322 6.0 13.0 0.00 0.00 0.00 58 1015.2
20260510194527 69 329 8.0 19.0 0.00 0.00 0.00 58 1015.2
20260510194015 69 319 11.0 19.0 0.00 0.00 0.00 58 1015.3
20260510193509 69 307 9.0 22.0 0.00 0.00 0.00 58 1015.3
20260510193029 69 314 12.0 22.0 0.00 0.00 0.00 58 1015.3
20260510192509 69 330 14.0 20.0 0.00 0.00 0.00 55 1015.3
20260510192010 69 327 13.0 20.0 0.00 0.00 0.00 55 1015.1
20260510191522 70 328 9.0 17.0 0.00 0.00 0.00 54 1015.0
20260510191013 70 304 6.0 25.0 0.00 0.00 0.00 53 1015.0
20260510190510 70 329 12.0 25.0 0.00 0.00 0.00 51 1014.9
20260510190006 70 317 8.0 19.0 0.00 0.00 0.00 50 1014.8
20260510185506 70 331 13.0 19.0 0.00 0.00 0.00 51 1014.9
20260510185002 71 250 6.0 15.0 0.00 0.00 0.00 51 1014.7
20260510184510 71 272 8.0 21.0 0.00 0.00 0.00 51 1014.8
20260510184006 71 288 8.0 21.0 0.00 0.00 0.00 49 1014.6
20260510183506 72 318 4.0 17.0 0.00 0.00 0.00 49 1014.5
20260510183018 71 300 5.0 17.0 0.00 0.00 0.00 52 1014.5
20260510182509 71 290 10.0 17.0 0.00 0.00 0.00 49 1014.5
20260510182002 72 317 7.0 15.0 0.00 0.00 0.00 51 1014.9
20260510181502 71 241 4.0 12.0 0.00 0.00 0.00 51 1014.8
20260510181002 71 142 3.0 12.0 0.00 0.00 0.00 52 1014.8
20260510180502 71 209 4.0 11.0 0.00 0.00 0.00 52 1014.9
20260510180004 70 290 2.0 9.0 0.00 0.00 0.00 54 1014.9
20260510175503 69 276 3.0 8.0 0.00 0.00 0.00 54 1014.9
20260510175007 69 169 3.0 15.0 0.00 0.00 0.00 55 1014.9
20260510174511 69 313 5.0 15.0 0.00 0.00 0.00 54 1014.9
20260510174006 69 346 6.0 12.0 0.00 0.00 0.00 55 1014.9
20260510173506 69 327 3.0 13.0 0.00 0.00 0.00 53 1014.9
20260510173013 70 338 6.0 13.0 0.00 0.00 0.00 53 1014.9
20260510172509 70 309 2.0 17.0 0.00 0.00 0.00 53 1015.0
20260510172010 70 279 7.0 17.0 0.00 0.00 0.00 52 1015.0
20260510171516 70 219 7.0 14.0 0.00 0.00 0.00 51 1015.1
20260510171008 70 257 4.0 13.0 0.00 0.00 0.00 51 1015.1
20260510170506 70 261 3.0 13.0 0.00 0.00 0.00 52 1015.1
20260510170006 71 336 6.0 13.0 0.00 0.00 0.00 51 1015.1
20260510165503 70 240 3.0 16.0 0.00 0.00 0.00 51 1015.2
20260510165006 70 257 6.0 16.0 0.00 0.00 0.00 54 1015.2
20260510164516 69 311 4.0 16.0 0.00 0.00 0.00 55 1015.4
20260510164003 69 259 4.0 16.0 0.00 0.00 0.00 54 1015.3
20260510163506 70 202 5.0 16.0 0.00 0.00 0.00 52 1015.3
20260510163011 70 216 4.0 13.0 0.00 0.00 0.00 53 1015.5
20260510162506 70 344 4.0 11.0 0.00 0.00 0.00 54 1015.5
20260510162011 69 138 5.0 13.0 0.00 0.00 0.00 56 1015.6
20260510161518 69 270 4.0 13.0 0.00 0.00 0.00 54 1015.7
20260510161006 69 321 7.0 13.0 0.00 0.00 0.00 55 1015.7
20260510160510 69 287 7.0 12.0 0.00 0.00 0.00 54 1015.7
20260510160022 68 227 6.0 16.0 0.00 0.00 0.00 53 1015.7
20260510155511 68 281 4.0 16.0 0.00 0.00 0.00 54 1015.7
20260510155011 68 316 7.0 16.0 0.00 0.00 0.00 56 1015.8
20260510154503 68 63 2.0 15.0 0.00 0.00 0.00 56 1015.7
20260510154002 68 249 7.0 15.0 0.00 0.00 0.00 55 1016.0
20260510153502 68 269 7.0 18.0 0.00 0.00 0.00 55 1015.9
20260510153007 68 245 9.0 18.0 0.00 0.00 0.00 55 1016.0
20260510152504 68 304 5.0 16.0 0.00 0.00 0.00 57 1016.1
20260510152006 68 265 4.0 16.0 0.00 0.00 0.00 56 1016.0
20260510151515 68 271 6.0 18.0 0.00 0.00 0.00 57 1016.1
20260510151007 67 213 8.0 18.0 0.00 0.00 0.00 57 1016.0
20260510150507 67 311 3.0 11.0 0.00 0.00 0.00 59 1015.8
20260510150021 67 204 2.0 11.0 0.00 0.00 0.00 59 1015.9
20260510145510 67 246 4.0 12.0 0.00 0.00 0.00 61 1015.8
20260510145007 67 223 6.0 12.0 0.00 0.00 0.00 59 1015.7
20260510144527 66 279 4.0 12.0 0.00 0.00 0.00 60 1015.6
20260510144007 66 261 6.0 11.0 0.00 0.00 0.00 61 1015.6
20260510143511 66 308 4.0 12.0 0.00 0.00 0.00 61 1015.5
20260510143023 66 250 4.0 12.0 0.00 0.00 0.00 62 1015.6
20260510142503 66 273 6.0 11.0 0.00 0.00 0.00 61 1015.6
20260510142005 66 252 4.0 12.0 0.00 0.00 0.00 63 1015.6
20260510141513 66 263 5.0 13.0 0.00 0.00 0.00 65 1015.5
20260510141010 66 200 5.0 13.0 0.00 0.00 0.00 63 1015.6
20260510140506 65 303 1.0 11.0 0.00 0.00 0.00 64 1015.6
20260510140016 65 264 4.0 12.0 0.00 0.00 0.00 64 1015.8
20260510135509 65 250 5.0 12.0 0.00 0.00 0.00 63 1015.8
20260510135011 64 263 4.0 13.0 0.00 0.00 0.00 65 1015.8
20260510134523 64 207 4.0 17.0 0.00 0.00 0.00 65 1015.9
20260510134009 64 266 10.0 17.0 0.00 0.00 0.00 66 1016.0
20260510133507 64 252 4.0 8.0 0.00 0.00 0.00 64 1015.9
20260510133023 64 276 2.0 11.0 0.00 0.00 0.00 65 1015.8
20260510132511 64 227 4.0 11.0 0.00 0.00 0.00 67 1015.9
20260510132010 63 198 3.0 11.0 0.00 0.00 0.00 67 1015.8
20260510131527 63 215 2.0 12.0 0.00 0.00 0.00 68 1015.8
20260510131003 63 260 4.0 12.0 0.00 0.00 0.00 68 1015.8
20260510130506 63 281 4.0 12.0 0.00 0.00 0.00 67 1015.7
20260510130016 62 277 2.0 10.0 0.00 0.00 0.00 69 1015.8
20260510125505 62 250 5.0 10.0 0.00 0.00 0.00 68 1015.7
20260510125008 62 273 3.0 10.0 0.00 0.00 0.00 72 1015.7
20260510124527 61 236 4.0 10.0 0.00 0.00 0.00 74 1015.5
20260510124009 60 269 4.0 7.0 0.00 0.00 0.00 76 1015.5
20260510123511 59 200 2.0 6.0 0.00 0.00 0.00 79 1015.4
20260510123022 58 318 1.0 3.0 0.00 0.00 0.00 84 1015.4
20260510122509 56 101 0.0 2.0 0.00 0.00 0.00 85 1015.3
20260510122010 55 101 0.0 2.0 0.00 0.00 0.00 87 1015.3
20260510121527 54 25 0.0 0.0 0.00 0.00 0.00 90 1015.4
20260510121007 53 25 0.0 0.0 0.00 0.00 0.00 91 1015.2
20260510120514 52 25 0.0 0.0 0.00 0.00 0.00 91 1015.1
20260510120027 51 24 0.0 0.0 0.00 0.00 0.00 92 1015.1
20260510115503 51 24 0.0 0.0 0.00 0.00 0.00 93 1015.0
20260510115011 50 85 0.0 0.0 0.00 0.00 0.00 93 1014.9
20260510114526 50 84 0.0 0.0 0.00 0.00 0.00 94 1014.9
20260510114010 49 321 0.0 0.0 0.00 0.00 0.00 94 1015.0
20260510113508 49 321 0.0 0.0 0.00 0.00 0.00 95 1015.0
20260510113020 48 321 0.0 0.0 0.00 0.00 0.00 96 1015.0
20260510112506 48 321 0.0 0.0 0.00 0.00 0.00 96 1015.0
20260510112015 47 321 0.0 0.0 0.00 0.00 0.00 96 1014.9
20260510111524 47 321 0.0 0.0 0.00 0.00 0.00 96 1014.9
20260510111010 47 321 0.0 0.0 0.00 0.00 0.00 97 1014.9
20260510110509 47 321 0.0 0.0 0.00 0.00 0.00 97 1014.9
20260510110025 46 321 0.0 0.0 0.00 0.00 0.00 97 1014.9
20260510105509 46 321 0.0 0.0 0.00 0.00 0.00 97 1014.8
20260510105007 45 321 0.0 0.0 0.00 0.00 0.00 97 1014.6
20260510104530 45 321 0.0 0.0 0.00 0.00 0.00 96 1014.5
20260510104010 45 321 0.0 1.0 0.00 0.00 0.00 96 1014.4
20260510103507 45 321 0.0 2.0 0.00 0.00 0.00 96 1014.4
20260510103020 45 321 0.0 3.0 0.00 0.00 0.00 96 1014.1
20260510102510 45 284 0.0 3.0 0.00 0.00 0.00 96 1014.1
20260510102005 45 322 0.0 3.0 0.00 0.00 0.00 96 1014.0
20260510101522 45 309 0.0 3.0 0.00 0.00 0.00 96 1013.9
20260510101008 45 323 0.0 0.0 0.00 0.00 0.00 96 1013.8
20260510100507 45 323 0.0 0.0 0.00 0.00 0.00 96 1013.8
20260510100028 45 323 0.0 1.0 0.00 0.00 0.00 96 1013.8
20260510095511 45 323 0.0 3.0 0.00 0.00 0.00 96 1013.8
20260510095014 45 323 0.0 3.0 0.00 0.00 0.00 96 1013.6
20260510094526 45 297 0.0 3.0 0.00 0.00 0.00 96 1013.7
20260510094005 45 259 0.0 4.0 0.00 0.00 0.00 96 1013.7
20260510093506 45 307 0.0 6.0 0.00 0.00 0.00 97 1013.6
20260510093016 45 274 1.0 8.0 0.00 0.00 0.00 97 1013.5
20260510092509 45 257 4.0 8.0 0.00 0.00 0.00 97 1013.4
20260510092008 45 321 2.0 4.0 0.00 0.00 0.00 96 1013.4
20260510091530 45 277 2.0 4.0 0.00 0.00 0.00 96 1013.4
20260510091006 45 273 1.0 4.0 0.00 0.00 0.00 97 1013.3
20260510090506 45 293 2.0 4.0 0.00 0.00 0.00 96 1013.4
20260510090024 45 288 1.0 3.0 0.00 0.00 0.00 96 1013.4
20260510085509 45 308 0.0 2.0 0.00 0.00 0.00 97 1013.4
20260510085007 45 308 0.0 2.0 0.00 0.00 0.00 96 1013.4
20260510084526 45 308 0.0 2.0 0.00 0.00 0.00 96 1013.4
20260510084009 45 308 0.0 2.0 0.00 0.00 0.00 96 1013.4
20260510083510 45 308 0.0 3.0 0.00 0.00 0.00 96 1013.3
20260510083018 45 308 1.0 3.0 0.00 0.00 0.00 96 1013.4
20260510082506 45 293 0.0 3.0 0.00 0.00 0.00 96 1013.4
20260510082013 45 285 0.0 3.0 0.00 0.00 0.00 96 1013.3
20260510081522 45 298 0.0 3.0 0.00 0.00 0.00 96 1013.3
20260510081007 45 311 0.0 2.0 0.00 0.00 0.00 96 1013.3
20260510080509 45 311 1.0 2.0 0.00 0.00 0.00 96 1013.3
20260510080027 45 287 0.0 2.0 0.00 0.00 0.00 96 1013.3
20260510075506 45 287 0.0 2.0 0.00 0.00 0.00 96 1013.3
20260510075008 45 279 0.0 1.0 0.00 0.00 0.00 96 1013.3
20260510074526 44 260 0.0 0.0 0.00 0.00 0.00 96 1013.3
20260510074008 44 260 0.0 0.0 0.00 0.00 0.00 96 1013.3
20260510073509 44 260 0.0 4.0 0.00 0.00 0.00 95 1013.2
20260510073029 44 260 0.0 4.0 0.00 0.00 0.00 96 1013.2
20260510072514 44 263 0.0 3.0 0.00 0.00 0.00 95 1013.2
20260510072010 44 5 0.0 2.0 0.00 0.00 0.00 94 1013.1
20260510071536 44 5 0.0 2.0 0.00 0.00 0.00 94 1013.2
20260510071006 45 28 0.0 2.0 0.00 0.00 0.00 95 1013.2
20260510070506 44 88 0.0 1.0 0.00 0.00 0.00 95 1013.0
20260510070008 44 88 0.0 1.0 0.00 0.00 0.00 95 1013.0
20260510065505 45 88 0.0 1.0 0.00 0.00 0.00 95 1013.0
20260510065004 45 88 0.0 2.0 0.00 0.00 0.00 95 1012.9
20260510064504 45 88 0.0 2.0 0.00 0.00 0.00 95 1012.9
20260510064003 45 88 0.0 2.0 0.00 0.00 0.00 95 1012.9
20260510063505 45 88 0.0 2.0 0.00 0.00 0.00 95 1013.0
20260510063015 45 88 0.0 2.0 0.00 0.00 0.00 95 1013.0
20260510062507 45 88 1.0 2.0 0.00 0.00 0.00 95 1012.9
20260510062007 44 72 0.0 2.0 0.00 0.00 0.00 95 1013.0
20260510061513 44 72 0.0 2.0 0.00 0.00 0.00 95 1013.0
20260510061007 45 72 0.0 3.0 0.00 0.00 0.00 94 1013.0
20260510060502 45 157 1.0 3.0 0.00 0.00 0.00 94 1013.0
20260510060003 45 84 0.0 3.0 0.00 0.00 0.00 95 1013.2
20260510055503 45 109 2.0 3.0 0.00 0.00 0.00 95 1013.1
20260510055003 45 179 0.0 2.0 0.00 0.00 0.00 95 1013.2
20260510054505 44 56 0.0 0.0 0.00 0.00 0.00 95 1013.2
20260510054003 44 93 0.0 0.0 0.00 0.00 0.00 94 1013.2
20260510053504 44 93 0.0 0.0 0.00 0.00 0.00 94 1013.3
20260510053009 44 93 0.0 0.0 0.00 0.00 0.00 95 1013.4
20260510052506 45 94 0.0 0.0 0.00 0.00 0.00 95 1013.4
20260510052004 45 52 0.0 0.0 0.00 0.00 0.00 95 1013.5
20260510051513 44 52 0.0 0.0 0.00 0.00 0.00 94 1013.5
20260510051003 44 52 0.0 0.0 0.00 0.00 0.00 94 1013.6
20260510050505 44 52 0.0 0.0 0.00 0.00 0.00 94 1013.5
20260510050018 45 52 0.0 0.0 0.00 0.00 0.00 94 1013.5
20260510045509 45 314 0.0 0.0 0.00 0.00 0.00 94 1013.4
20260510045010 45 284 0.0 0.0 0.00 0.00 0.00 94 1013.4
20260510044504 45 283 0.0 0.0 0.00 0.00 0.00 94 1013.5
20260510044003 45 301 0.0 0.0 0.00 0.00 0.00 94 1013.5
20260510043503 45 301 0.0 0.0 0.00 0.00 0.00 94 1013.4
20260510043004 45 269 0.0 0.0 0.00 0.00 0.00 94 1013.3
20260510042507 45 309 0.0 0.0 0.00 0.00 0.00 93 1013.3
20260510042003 45 309 0.0 0.0 0.00 0.00 0.00 93 1013.2
20260510041508 45 309 0.0 0.0 0.00 0.00 0.00 93 1013.1
20260510041003 45 309 0.0 0.0 0.00 0.00 0.00 93 1013.0
20260510040504 46 294 0.0 0.0 0.00 0.00 0.00 94 1013.0
20260510040013 45 294 0.0 0.0 0.00 0.00 0.00 93 1013.0
20260510035504 46 294 0.0 1.0 0.00 0.00 0.00 93 1013.0
20260510035005 46 294 0.0 2.0 0.00 0.00 0.00 92 1013.0
20260510034522 46 280 0.0 2.0 0.00 0.00 0.00 92 1013.0
20260510034006 46 301 0.0 2.0 0.00 0.00 0.00 92 1013.0
20260510033510 46 301 0.0 2.0 0.00 0.00 0.00 92 1013.0
20260510033023 46 301 1.0 2.0 0.00 0.00 0.00 91 1013.0
20260510032503 46 301 0.0 2.0 0.00 0.00 0.00 91 1013.0
20260510032003 47 301 1.0 2.0 0.00 0.00 0.00 91 1012.9
20260510031510 47 301 0.0 0.0 0.00 0.00 0.00 91 1013.0
20260510031003 47 301 0.0 2.0 0.00 0.00 0.00 91 1013.0
20260510030503 47 301 0.0 2.0 0.00 0.00 0.00 90 1013.0
20260510030018 47 301 0.0 2.0 0.00 0.00 0.00 90 1013.0
20260510025506 47 275 0.0 1.0 0.00 0.00 0.00 89 1013.0
20260510025004 48 275 0.0 3.0 0.00 0.00 0.00 89 1013.0
20260510024513 48 275 0.0 4.0 0.00 0.00 0.00 89 1013.0
20260510024006 48 299 1.0 4.0 0.00 0.00 0.00 89 1013.0
20260510023506 48 313 2.0 4.0 0.00 0.00 0.00 88 1012.9
20260510023020 49 313 2.0 3.0 0.00 0.00 0.00 87 1012.9
20260510022507 49 278 0.0 0.0 0.00 0.00 0.00 86 1012.9
20260510022007 49 278 0.0 1.0 0.00 0.00 0.00 85 1012.9
20260510021527 50 278 0.0 2.0 0.00 0.00 0.00 84 1012.8
20260510021007 50 278 0.0 3.0 0.00 0.00 0.00 83 1012.6
20260510020502 51 305 2.0 6.0 0.00 0.00 0.00 83 1012.6
20260510020010 51 288 2.0 6.0 0.00 0.00 0.00 82 1012.6
20260510015503 51 290 2.0 6.0 0.00 0.00 0.00 82 1012.6
20260510015005 51 277 3.0 6.0 0.00 0.00 0.00 82 1012.5
20260510014514 52 294 2.0 6.0 0.00 0.00 0.00 81 1012.5
20260510014004 52 282 2.0 6.0 0.00 0.00 0.00 81 1012.3
20260510013508 52 271 3.0 6.0 0.00 0.00 0.00 81 1012.2
20260510013016 52 289 3.0 6.0 0.00 0.00 0.00 81 1012.0
20260510012506 52 290 2.0 4.0 0.00 0.00 0.00 81 1011.8
20260510012007 52 289 2.0 4.0 0.00 0.00 0.00 81 1011.8
20260510011524 53 296 2.0 3.0 0.00 0.00 0.00 80 1011.7
20260510011006 53 292 2.0 5.0 0.00 0.00 0.00 79 1011.6
20260510010508 54 299 3.0 5.0 0.00 0.00 0.00 77 1011.6
20260510010023 55 317 2.0 4.0 0.00 0.00 0.00 75 1011.4
20260510005508 55 265 2.0 4.0 0.00 0.00 0.00 73 1011.2
20260510005003 56 275 1.0 4.0 0.00 0.00 0.00 71 1011.2
20260510004511 56 269 2.0 4.0 0.00 0.00 0.00 71 1011.1
20260510004004 57 300 2.0 3.0 0.00 0.00 0.00 69 1010.9
20260510003505 58 302 1.0 3.0 0.00 0.00 0.00 67 1010.9
20260510003024 58 224 0.0 4.0 0.00 0.00 0.00 65 1010.9
20260510002505 59 221 1.0 4.0 0.00 0.00 0.00 64 1010.8
20260510002006 59 261 1.0 3.0 0.00 0.00 0.00 63 1010.7
20260510001524 60 257 1.0 3.0 0.00 0.00 0.00 62 1010.7
20260510001007 60 221 1.0 3.0 0.00 0.00 0.00 62 1010.7
20260510000507 61 220 1.0 4.0 0.00 0.00 0.00 61 1010.7
20260510000023 62 256 0.0 6.0 0.00 0.00 0.00 58 1010.6
20260509235506 62 297 2.0 10.0 0.00 0.00 0.00 57 1010.7
20260509235009 62 305 4.0 10.0 0.00 0.00 0.00 56 1010.6
20260509234534 63 311 3.0 9.0 0.00 0.00 0.00 55 1010.6
20260509234008 64 291 3.0 9.0 0.00 0.00 0.00 54 1010.6
20260509233508 65 315 1.0 9.0 0.00 0.00 0.00 54 1010.6
20260509233011 65 328 2.0 8.0 0.00 0.00 0.00 54 1010.4
20260509232505 65 288 2.0 5.0 0.00 0.00 0.00 53 1010.3
20260509232010 65 322 2.0 7.0 0.00 0.00 0.00 52 1010.3
20260509231510 65 305 1.0 9.0 0.00 0.00 0.00 53 1010.3